User: anonymous   Login
Location: Caltech
(34.1382°N, 118.1253°W)
Time: 15:16:09
(UTC-07:00)
Language:

Cosmos 1484 Rocket - Orbit

View from above orbital plane
View from above orbital plane
View from above satellite
View from above satellite

Ground track
Ground track

The orbit data is extracted from the following two-line orbital elements,

1 14208U 83075B   16150.59243625  .00000812  00000-0  53008-4 0  9998
2 14208  97.3555 170.7092 0040321  16.5566 343.6970 15.09930506789617
Epoch (UTC): 29 May 2016 14:13:06
Eccentricity: 0.0040321
inclination: 97.3555°
perigee height: 508 km
apogee height: 564 km
right ascension of ascending node: 170.7092°
argument of perigee: 16.5566°
revolutions per day: 15.09930506
mean anomaly at epoch: 343.6970°
orbit number at epoch: 78961

The dashed part of the orbit path shows where the satellite is in the earth's shadow,  

DLR